sat.trackr.live / text

‹ back to catalog

ICEYE-X34

NORAD 58294 · 2023-174AQ

PAYLOAD ACTIVE UNKNOWN

§ Identity

Operator
Country
US
Launch date
2023-11-11
Launch site
AFWTR
Launch vehicle
Mass (kg)
RCS (m²)

External: N2YO · Heavens-Above · Gunter

§ Orbital elements

Epoch: 2026-05-25T04:38:47.477184Z

Period
92.23 min
Inclination
97.3878°
Eccentricity
0.0005596
Mean motion
15.61264066 rev/d
Perigee alt
380.2 km
Apogee alt
387.8 km
Semi-major
6,762.1 km
B*
8.1092e-4
RAAN
235.3454°
Arg perigee
213.3970°
Mean anomaly
146.6935°
Rev number
14,215

§ Raw data

ICEYE-X341 58294U 23174AQ  26145.19360506  .00069137  00000+0  81092-3 0  99912 58294  97.3878 235.3454 0005596 213.3970 146.6935 15.61264066142152

JSON: /api/v1/satellites/58294 · /tle

For live sub-satellite position, see the globe view (requires WebGL).

§ Visibility from observer

Set your observer location to see the next 7 days of passes ≥ 10°. The values pass through the URL so the page stays shareable.

No JS? Fill the form by hand. The geolocation button needs JavaScript.

§ Radio — SatNOGS DB

ModeDescriptionDownlinkUplink
BPSK S-band telemetry 2.270 GHz

1 transmitter · refreshed weekly from db.satnogs.org